• Em Portugal
  • Lista de países
  • Para 7 dias
  • Temperatura da água
  • Mapas de satélite
  • Mapa do tempo
  • Widgets de tempo
  • user-avatar
    Iniciar Sessão

    Previsão horária em Borovec

    Hoje, 26 Setembro, Quarta-feira

    Tempo Temperatura Precipitação Vento Pressão Humidade
    00:00 +5°C° 0 mm 1 m/s 721 mmHg 65%
    01:00 +5°C° 0 mm 1 m/s 721 mmHg 68%
    02:00 +5°C° 0 mm 1 m/s 721 mmHg 70%
    03:00 +4°C° 0 mm 1 m/s 721 mmHg 72%
    04:00 +4°C° 0 mm 1 m/s 721 mmHg 74%
    05:00 +4°C° 0 mm 1 m/s 721 mmHg 76%
    06:00 +5°C° 0 mm 1 m/s 722 mmHg 69%
    07:00 +6°C° 0 mm 1 m/s 722 mmHg 63%
    08:00 +7°C° 0 mm 2 m/s 722 mmHg 54%
    09:00 +8°C° 0 mm 2 m/s 722 mmHg 48%
    10:00 +10°C° 0 mm 3 m/s 722 mmHg 43%
    11:00 +12°C° 0 mm 4 m/s 722 mmHg 37%
    12:00 +12°C° 0 mm 4 m/s 722 mmHg 35%
    13:00 +13°C° 0 mm 4 m/s 722 mmHg 34%
    14:00 +13°C° 0 mm 4 m/s 721 mmHg 33%
    15:00 +13°C° 0 mm 4 m/s 721 mmHg 35%
    16:00 +12°C° 0 mm 4 m/s 721 mmHg 37%
    17:00 +11°C° 0 mm 4 m/s 721 mmHg 39%
    18:00 +9°C° 0 mm 3 m/s 721 mmHg 46%
    19:00 +7°C° 0 mm 3 m/s 721 mmHg 53%
    20:00 +5°C° 0 mm 2 m/s 721 mmHg 60%
    21:00 +5°C° 0 mm 2 m/s 721 mmHg 61%
    22:00 +5°C° 0 mm 1 m/s 722 mmHg 63%
    23:00 +5°C° 0 mm 1 m/s 722 mmHg 64%

    Amanhã, 27 Setembro, Quinta-feira

    Tempo Temperatura Precipitação Vento Pressão Humidade
    00:00 +5°C° 0 mm 1 m/s 722 mmHg 64%
    01:00 +4°C° 0 mm 1 m/s 722 mmHg 64%
    02:00 +4°C° 0 mm 1 m/s 722 mmHg 65%
    03:00 +4°C° 0 mm 1 m/s 721 mmHg 65%
    04:00 +4°C° 0 mm 1 m/s 721 mmHg 65%
    05:00 +3°C° 0 mm 1 m/s 721 mmHg 65%
    06:00 +5°C° 0 mm 1 m/s 721 mmHg 59%
    07:00 +6°C° 0 mm 1 m/s 721 mmHg 54%
    08:00 +8°C° 0 mm 1 m/s 721 mmHg 48%
    09:00 +9°C° 0 mm 2 m/s 721 mmHg 41%
    10:00 +13°C° 0 mm 2 m/s 721 mmHg 34%
    11:00 +14°C° 0 mm 3 m/s 721 mmHg 28%
    12:00 +16°C° 0 mm 3 m/s 720 mmHg 26%
    13:00 +17°C° 0 mm 3 m/s 720 mmHg 23%
    14:00 +17°C° 0 mm 4 m/s 719 mmHg 21%
    15:00 +17°C° 0 mm 3 m/s 718 mmHg 23%
    16:00 +16°C° 0 mm 3 m/s 718 mmHg 24%
    17:00 +16°C° 0 mm 3 m/s 717 mmHg 26%
    18:00 +13°C° 0 mm 2 m/s 717 mmHg 31%
    19:00 +9°C° 0 mm 2 m/s 717 mmHg 37%
    20:00 +8°C° 0 mm 1 m/s 717 mmHg 43%
    21:00 +7°C° 0 mm 1 m/s 717 mmHg 44%
    22:00 +7°C° 0 mm 1 m/s 717 mmHg 45%
    23:00 +6°C° 0 mm 1 m/s 717 mmHg 45%

    Depois de amanhã, 28 Setembro, Sexta-feira

    Tempo Temperatura Precipitação Vento Pressão Humidade
    00:00 +6°C° 0 mm 1 m/s 717 mmHg 46%
    01:00 +6°C° 0 mm 1 m/s 717 mmHg 46%
    02:00 +6°C° 0 mm 1 m/s 717 mmHg 46%
    03:00 +5°C° 0 mm 1 m/s 716 mmHg 46%
    04:00 +5°C° 0 mm 1 m/s 716 mmHg 46%
    05:00 +5°C° 0 mm 1 m/s 716 mmHg 46%
    06:00 +7°C° 0 mm 1 m/s 716 mmHg 42%
    07:00 +9°C° 0 mm 1 m/s 716 mmHg 39%
    08:00 +10°C° 0 mm 1 m/s 716 mmHg 36%
    09:00 +13°C° 0 mm 1 m/s 715 mmHg 30%
    10:00 +16°C° 0 mm 2 m/s 715 mmHg 25%
    11:00 +18°C° 0 mm 2 m/s 715 mmHg 20%
    12:00 +19°C° 0 mm 2 m/s 714 mmHg 19%
    13:00 +20°C° 0 mm 2 m/s 714 mmHg 19%
    14:00 +21°C° 0 mm 2 m/s 713 mmHg 18%
    15:00 +21°C° 0 mm 2 m/s 713 mmHg 20%
    16:00 +20°C° 0 mm 2 m/s 712 mmHg 22%
    17:00 +19°C° 0 mm 2 m/s 711 mmHg 24%
    18:00 +17°C° 0 mm 2 m/s 711 mmHg 28%
    19:00 +15°C° 0 mm 1 m/s 711 mmHg 31%
    20:00 +13°C° 0 mm 1 m/s 711 mmHg 34%
    21:00 +13°C° 0 mm 1 m/s 711 mmHg 34%
    22:00 +13°C° 0 mm 1 m/s 711 mmHg 35%
    23:00 +12°C° 0 mm 1 m/s 711 mmHg 35%

    29 Setembro, Sábado

    Tempo Temperatura Precipitação Vento Pressão Humidade
    00:00 +12°C° 0 mm 1 m/s 711 mmHg 37%
    01:00 +12°C° 0 mm 1 m/s 711 mmHg 39%
    02:00 +12°C° 0 mm 1 m/s 710 mmHg 41%
    03:00 +12°C° 0.1 mm 1 m/s 710 mmHg 46%
    04:00 +12°C° 0.1 mm 1 m/s 710 mmHg 51%
    05:00 +11°C° 0.1 mm 1 m/s 710 mmHg 57%
    06:00 +12°C° 0 mm 1 m/s 710 mmHg 58%
    07:00 +13°C° 0 mm 1 m/s 710 mmHg 59%
    08:00 +13°C° 0 mm 1 m/s 710 mmHg 60%
    09:00 +15°C° 0 mm 1 m/s 711 mmHg 54%
    10:00 +16°C° 0 mm 1 m/s 711 mmHg 49%
    11:00 +18°C° 0 mm 2 m/s 711 mmHg 43%
    12:00 +18°C° 0 mm 2 m/s 711 mmHg 40%
    13:00 +19°C° 0 mm 2 m/s 711 mmHg 37%
    14:00 +19°C° 0 mm 3 m/s 711 mmHg 35%
    15:00 +19°C° 0 mm 3 m/s 710 mmHg 36%
    16:00 +18°C° 0 mm 2 m/s 710 mmHg 37%
    17:00 +18°C° 0 mm 2 m/s 710 mmHg 38%
    18:00 +16°C° 0 mm 2 m/s 710 mmHg 43%
    19:00 +14°C° 0 mm 1 m/s 711 mmHg 49%
    20:00 +12°C° 0 mm 1 m/s 711 mmHg 54%
    21:00 +11°C° 0 mm 1 m/s 711 mmHg 56%
    22:00 +11°C° 0 mm 1 m/s 712 mmHg 58%
    23:00 +10°C° 0 mm 1 m/s 712 mmHg 60%

    30 Setembro, Domingo

    Tempo Temperatura Precipitação Vento Pressão Humidade
    00:00 +10°C° 0 mm 1 m/s 712 mmHg 63%
    01:00 +10°C° 0 mm 1 m/s 712 mmHg 67%
    02:00 +9°C° 0 mm 1 m/s 713 mmHg 70%
    03:00 +9°C° 0 mm 1 m/s 713 mmHg 74%
    04:00 +9°C° 0 mm 1 m/s 713 mmHg 78%
    05:00 +8°C° 0 mm 1 m/s 713 mmHg 82%
    06:00 +9°C° 0 mm 1 m/s 713 mmHg 80%
    07:00 +9°C° 0 mm 2 m/s 714 mmHg 78%
    08:00 +10°C° 0 mm 2 m/s 714 mmHg 76%
    09:00 +12°C° 0 mm 2 m/s 714 mmHg 72%
    10:00 +12°C° 0 mm 3 m/s 714 mmHg 68%
    11:00 +14°C° 0 mm 3 m/s 714 mmHg 64%
    12:00 +14°C° 0 mm 3 m/s 714 mmHg 62%
    13:00 +14°C° 0 mm 3 m/s 714 mmHg 60%
    14:00 +16°C° 0 mm 3 m/s 714 mmHg 59%
    15:00 +16°C° 0 mm 3 m/s 713 mmHg 61%
    16:00 +14°C° 0 mm 3 m/s 713 mmHg 63%
    17:00 +14°C° 0 mm 3 m/s 713 mmHg 64%
    18:00 +13°C° 0 mm 2 m/s 713 mmHg 72%
    19:00 +12°C° 0 mm 2 m/s 713 mmHg 79%
    20:00 +10°C° 0 mm 1 m/s 713 mmHg 87%
    21:00 +10°C° 0 mm 1 m/s 713 mmHg 88%
    22:00 +10°C° 0 mm 1 m/s 713 mmHg 88%
    23:00 +9°C° 0 mm 1 m/s 713 mmHg 89%

    1 Outubro, Segunda-feira

    Tempo Temperatura Precipitação Vento Pressão Humidade
    00:00 +9°C° 0 mm 1 m/s 713 mmHg 89%
    01:00 +9°C° 0 mm 1 m/s 713 mmHg 89%
    02:00 +10°C° 0 mm 1 m/s 713 mmHg 89%
    03:00 +9°C° 0 mm 1 m/s 712 mmHg 90%
    04:00 +9°C° 0 mm 1 m/s 712 mmHg 90%
    05:00 +9°C° 0 mm 1 m/s 712 mmHg 91%
    06:00 +10°C° 0 mm 1 m/s 712 mmHg 88%
    07:00 +11°C° 0 mm 1 m/s 712 mmHg 84%
    08:00 +10°C° 0 mm 0 m/s 712 mmHg 81%
    09:00 +13°C° 0 mm 1 m/s 711 mmHg 74%
    10:00 +15°C° 0 mm 1 m/s 711 mmHg 66%
    11:00 +18°C° 0 mm 1 m/s 711 mmHg 58%
    12:00 +19°C° 0 mm 1 m/s 711 mmHg 55%
    13:00 +20°C° 0 mm 1 m/s 710 mmHg 52%
    14:00 +21°C° 0 mm 1 m/s 710 mmHg 49%
    15:00 +20°C° 0 mm 1 m/s 710 mmHg 52%
    16:00 +18°C° 0 mm 2 m/s 709 mmHg 54%
    17:00 +18°C° 0 mm 2 m/s 709 mmHg 57%
    18:00 +16°C° 0 mm 1 m/s 709 mmHg 66%
    19:00 +14°C° 0 mm 1 m/s 709 mmHg 75%
    20:00 +12°C° 0 mm 1 m/s 709 mmHg 83%
    21:00 +12°C° 0.1 mm 1 m/s 709 mmHg 85%
    22:00 +12°C° 0.1 mm 1 m/s 709 mmHg 86%
    23:00 +11°C° 0.1 mm 1 m/s 709 mmHg 88%
    Mostrar mais